Weather in Petrove

Ukraine / Kirovohrad Region     48˚41′44″N   32˚41′42″E
temp.,
°C
wind,
m/s
gust,
m/s
humid.,
%
clouds,
%
prec.,
mm/h
press.,
hPa
HPBL,
m
2 december, wed
wed223:00e4796100 0.1 1026403
02:00+1˚ene4696100 0.4 1026344
05:00+1˚e4796100 0.2 1026353
08:00+1˚e4797100 0.4 1026349
11:00+1˚e5795100 0.2 1026441
14:00+1˚e4696100 0.6 1025314
17:00e4698100 1.0 1025239
20:00+1˚e3598100 2.1 1026199
3 december, thu
thu323:00+2˚e4698100 0.4 1025243
02:00+2˚e3598100 0.5 1025200
05:00+2˚e3598100 0.1 1025199
08:00+2˚e3595100 0.1 1025197
11:00+4˚ese3591100 0.1 1025261
14:00+5˚e2387100 0.1 1025301
17:00+3˚e359689 0.0 1024159
20:00+4˚ese379692 0.1 1025228
4 december, fri
fri423:00+4˚se479487 0.0 1025227
02:00+4˚se479394 0.0 1024274
05:00+3˚se4890100 0.0 1024299
08:00+3˚ese4889100 0.0 1025356
11:00+4˚ese587952 0.0 1025470
14:00+5˚ese577728 0.0 1024621
17:00+3˚ese588381 0.0 1024601
20:00+4˚se698491 0.0 1025646
5 december, sat
sat523:00+4˚ese51084100 0.0 1025488
02:00+3˚ese698592 0.0 1025420
05:00+2˚se698897 0.0 1025435
08:00+2˚se6108898 0.0 1027500
11:00+3˚se6981100 0.0 1027530
14:00+4˚ese587187 0.0 1027531
17:00+2˚ese511780 0.0 1027388
20:00+1˚ese511810 0.0 1028408
6 december, sun
sun623:00ese5118363 0.0 1029408
02:00−1˚ese5108343 0.0 1030349
05:00−2˚ese611743 0.0 1029373
08:00−2˚ese510701 0.0 1030425
11:00+1˚ese711580 0.0 1029532
14:00+2˚ese610550 0.0 1028618
17:00−1˚ese512640 0.0 1028442
20:00−1˚ese713490 0.0 1029450